Dewpoint
37 38 39 39 40 40 39 38 38 37 36 36 34 34 35 35 36 35 32 34 33 28 25 26 26 24 24 23 20 21 19 19 21 17 17 17 16 18 19 22 21 18 18 18 21 17 14 30 29 25 29 33 36 36
38 39 39 39 40 40 38 38 38 37 36 36 35 34 34 35 35 37 31 34 37 30 26 30 30 29 28 27 25 26 23 22 24 21 20 21 18 20 20 16 23 17 23 19 22 21 29 32 31 34 35 35 36 36
39 39 39 40 40 40 38 38 38 37 37 36 35 34 35 34 36 37 34 35 31 25 22 19 12 21 29 30 30 25 23 24 22 25 24 22 18 22 17 20 23 23 25 20 20 22 26 31 33 33 33 35 37 37
39 39 40 40 40 40 40 39 39 39 37 36 35 34 34 34 34 36 33 34 28 25 15 9 23 19 24 27 30 31 29 28 25 24 23 22 20 25 21 23 23 26 25 23 18 21 25 27 33 34 33 34 37 36
40 40 40 40 40 41 40 40 40 38 37 36 36 34 34 35 35 34 37 35 35 24 18 18 22 18 22 24 26 27 29 26 22 20 19 19 22 23 22 23 24 28 26 24 21 26 25 28 33 33 32 34 36 35
40 40 40 40 40 40 40 40 39 38 37 36 36 35 34 36 37 28 25 33 36 32 23 11 19 19 21 23 24 27 28 26 24 22 21 21 22 23 18 18 24 26 27 28 28 30 30 33 33 34 34 35 36 35
40 40 40 40 40 40 40 39 38 37 37 36 36 34 35 37 37 28 27 34 35 31 21 15 12 18 23 23 23 26 27 26 24 21 21 22 21 21 22 19 26 26 28 28 29 30 28 31 31 34 34 35 35 35
40 40 40 40 41 41 40 39 38 37 37 36 35 35 37 36 34 31 34 34 30 25 22 14 12 15 21 18 17 24 24 25 28 26 25 25 24 22 20 23 24 26 28 28 29 31 33 32 31 30 33 34 33 33
41 40 40 40 41 41 41 39 38 37 36 36 36 34 32 29 27 30 36 33 32 25 18 20 15 9 21 19 20 19 20 18 26 25 26 24 21 21 23 24 24 26 31 31 32 31 30 29 28 30 32 31 31 32
41 40 40 40 40 41 41 39 38 37 36 36 29 25 25 30 36 33 25 23 22 22 24 19 22 15 20 19 18 17 18 17 17 22 25 19 16 22 23 27 25 27 31 31 29 29 28 28 29 30 30 32 31 30
41 40 39 39 40 41 41 39 37 35 34 30 27 26 29 34 28 22 19 18 19 15 21 21 21 19 22 17 18 19 16 17 13 17 20 13 11 17 24 25 27 25 30 30 31 30 29 28 28 28 29 30 30 30
41 40 39 39 40 40 40 38 37 29 30 31 30 34 32 23 19 17 12 17 19 10 17 17 17 21 20 22 17 18 16 15 12 20 15 9 12 19 24 26 26 25 24 28 31 29 29 29 29 28 28 29 30 30
41 40 40 40 40 40 40 38 36 32 35 33 28 24 19 18 11 7 -8 11 12 17 17 15 12 18 19 21 17 17 12 11 19 16 15 15 16 22 25 26 25 24 22 23 23 28 30 30 30 29 29 29 30 28
41 40 40 40 40 40 40 38 35 34 31 25 21 17 15 11 15 10 9 11 15 18 18 16 14 14 19 15 19 14 15 16 14 11 9 14 17 21 25 27 25 24 24 22 23 24 25 24 24 25 26 27 27 28
40 40 40 40 41 41 39 38 36 34 30 26 24 16 17 18 18 19 18 17 17 19 18 17 17 19 16 15 17 15 12 9 12 11 14 16 19 22 23 24 25 25 25 24 23 22 22 24 24 23 28 29 29 30
41 41 40 41 41 41 38 38 34 34 32 28 27 24 24 21 20 20 20 19 21 21 21 20 16 13 13 16 15 13 12 8 11 15 17 20 21 23 23 24 25 26 25 25 25 24 22 22 22 26 30 30 29 29
42 39 41 41 41 40 38 33 32 28 27 26 25 28 24 21 19 19 22 21 23 21 17 18 13 11 17 15 14 15 12 11 15 17 19 20 22 23 24 25 25 26 26 26 24 24 24 26 29 29 28 29 28 27
39 40 41 41 41 38 34 32 31 29 25 26 25 24 25 25 22 21 22 24 22 21 21 17 18 15 12 11 12 14 15 18 20 19 20 22 23 24 25 26 27 27 27 26 25 26 28 28 28 28 28 27 26 25
40 41 41 41 36 31 27 29 31 23 24 26 27 25 23 22 24 23 22 24 24 22 21 20 16 16 15 15 13 13 15 17 16 18 22 24 25 26 27 28 28 28 28 28 28 28 29 29 28 27 25 25 24 24
41 41 42 38 34 30 25 26 31 26 23 25 26 24 24 22 22 22 22 23 24 23 21 20 18 18 18 19 19 17 17 19 20 20 21 23 26 28 28 28 29 29 28 28 30 30 29 28 27 26 24 23 23 23
41 41 40 37 32 32 26 28 26 26 24 22 23 24 22 24 23 22 22 25 22 21 20 21 21 21 22 21 21 21 21 22 22 23 24 25 27 28 29 30 30 30 30 29 29 29 30 28 28 25 23 22 22 22
37 39 33 33 30 30 29 30 25 25 23 23 23 22 20 20 20 21 24 22 22 19 20 20 21 24 25 25 25 26 26 26 26 27 28 28 28 29 28 29 30 30 31 29 30 30 28 27 26 26 25 23 22 22
36 34 31 31 27 26 24 30 25 25 19 21 23 21 21 21 23 25 21 23 23 24 22 21 22 23 24 25 26 26 27 27 27 27 28 28 28 27 27 27 27 27 29 29 29 28 26 26 25 24 24 22 22 20
35 30 27 25 25 22 26 25 27 25 24 23 22 19 20 21 24 23 20 23 23 25 24 23 24 24 26 27 26 26 27 28 27 26 27 26 26 26 27 26 28 30 31 30 28 27 25 25 25 23 23 23 23 22
26 24 25 22 25 21 20 22 23 22 19 20 19 18 17 23 20 21 19 19 20 20 22 24 24 25 23 23 25 26 28 27 26 25 25 26 25 26 26 28 29 28 29 28 26 24 24 24 24 24 24 22 22 22
22 24 22 21 21 19 19 19 20 18 17 17 17 16 20 17 17 15 15 17 16 17 19 22 23 24 25 26 24 24 26 27 27 25 25 26 26 26 25 26 26 26 27 27 25 23 23 23 23 21 21 23 22 21
20 21 25 24 22 21 19 19 19 17 15 14 16 17 14 12 13 14 19 22 18 19 21 23 24 24 23 24 26 26 26 27 27 26 26 27 28 28 27 25 25 26 27 27 25 23 22 20 18 20 22 22 20 21
24 24 20 22 22 19 16 16 17 16 15 17 17 13 12 12 11 16 18 19 20 22 23 25 26 26 26 26 26 25 25 26 26 27 27 27 26 27 26 26 26 26 26 25 23 22 20 17 18 19 20 20 20 17
23 23 21 20 19 17 15 14 15 16 19 19 14 12 14 18 19 17 21 26 30 27 26 27 28 26 25 24 25 25 25 26 25 24 24 23 22 24 25 25 26 25 24 24 23 21 19 19 19 19 20 19 18 14
21 22 18 18 17 16 15 16 15 17 20 19 17 18 17 18 21 26 29 30 29 27 27 28 28 27 27 26 25 24 24 26 26 21 19 19 20 20 23 23 24 24 24 23 21 19 19 21 22 19 18 17 16 15
22 17 16 17 16 14 14 17 19 20 20 18 18 15 14 14 21 29 29 29 30 29 29 29 27 26 26 25 25 25 25 25 23 23 21 20 20 19 22 23 23 23 22 22 20 16 17 20 21 20 19 17 15 14
18 17 15 15 14 15 19 16 16 15 16 15 14 16 19 16 13 15 26 30 29 29 29 28 27 26 27 28 28 28 26 26 25 23 22 21 21 21 22 24 24 24 23 22 19 16 17 19 20 19 18 16 14 13
17 16 18 19 19 18 19 17 17 15 18 16 15 16 17 15 13 14 22 29 26 27 30 30 29 29 27 27 27 27 25 23 24 24 23 23 23 25 25 25 25 24 23 21 18 16 18 20 20 19 18 17 15 14
Wind_Speed
8 5 4 2 3 4 3 2 3 6 8 11 14 15 15 15 16 8 5 2 3 3 9 3 3 6 6 3 8 12 15 11 8 13 8 7 6 9 6 7 4 7 7 6 7 10 7 27 8 8 6 8 11 12
8 6 4 3 1 1 1 2 1 4 6 9 12 14 14 14 15 10 4 7 1 3 7 4 11 13 11 14 6 5 4 6 4 7 7 6 5 7 14 10 17 10 7 4 7 6 5 10 8 12 11 10 8 11
9 8 5 3 2 2 1 1 1 2 5 7 10 13 13 12 15 10 3 8 4 4 7 5 5 3 4 8 9 4 4 4 6 1 4 5 4 7 10 12 7 13 14 6 4 5 6 9 15 17 16 17 14 14
11 9 6 5 4 4 3 3 3 2 3 6 9 11 12 11 13 9 3 6 4 1 3 6 6 10 4 4 11 14 10 6 3 2 2 3 5 8 8 5 15 10 12 13 6 12 3 9 16 19 19 18 16 17
11 11 9 7 5 5 4 4 3 2 3 5 8 11 11 11 12 5 2 3 2 4 3 10 20 6 10 8 9 4 8 5 5 5 5 5 5 7 6 3 11 14 11 10 5 14 5 7 17 20 20 20 18 18
14 13 10 9 7 6 5 4 3 3 3 4 7 11 11 11 11 5 2 2 5 2 2 6 5 8 14 16 10 9 5 4 3 3 3 4 3 8 7 7 21 23 16 9 6 17 7 3 17 19 19 21 20 19
15 14 12 10 9 8 7 5 4 3 3 4 8 11 12 11 3 2 1 4 4 2 2 7 11 5 7 6 5 5 5 4 4 2 7 5 5 6 4 10 24 23 21 17 12 11 7 14 8 15 18 18 18 18
16 15 13 11 10 10 9 7 5 4 3 5 8 11 7 4 5 1 5 5 4 4 3 4 6 8 8 6 7 7 7 5 10 5 5 6 6 6 6 22 22 22 20 10 17 8 8 6 11 15 16 18 22 24
17 16 13 12 11 12 11 8 6 4 3 6 9 3 3 5 2 3 6 5 5 2 2 2 5 7 10 5 4 6 5 5 2 6 6 8 9 9 11 18 21 23 18 11 12 11 13 15 14 15 16 18 19 20
18 16 15 13 12 13 12 10 7 4 1 3 4 3 2 2 5 3 5 2 4 4 2 2 1 5 4 5 6 8 5 4 5 5 4 5 5 5 8 12 14 17 19 10 11 11 11 13 14 12 11 11 15 16
19 18 16 14 14 15 13 11 8 4 4 2 3 2 3 5 3 4 2 2 3 1 2 3 5 6 1 5 4 3 3 5 4 4 4 3 5 7 13 15 14 12 11 11 10 8 6 5 5 5 8 10 12 14
21 20 17 15 16 16 15 13 11 3 3 4 3 2 2 4 3 2 2 3 2 1 2 2 3 5 3 1 1 4 3 2 2 5 2 3 3 6 12 13 15 12 9 7 4 3 1 2 3 5 7 8 11 12
23 21 19 18 18 18 17 16 12 6 6 2 2 2 2 1 1 4 5 3 2 3 3 2 6 1 1 2 3 3 3 1 1 2 2 5 7 9 8 11 16 12 10 10 9 5 6 8 10 8 12 11 9 10
24 21 20 19 21 21 20 18 14 8 3 2 3 2 4 4 6 7 5 4 2 2 2 2 4 2 2 1 1 1 1 2 2 2 3 5 9 9 10 8 10 13 11 9 11 12 12 9 11 12 9 7 5 6
24 22 20 19 22 24 22 20 16 3 3 3 3 4 8 7 5 3 5 3 2 2 1 2 1 1 2 0 0 1 1 3 4 4 3 6 8 10 12 13 12 12 12 11 8 10 14 12 9 9 8 4 2 5
24 20 17 18 24 26 24 19 4 2 2 3 5 5 5 2 5 4 5 7 3 3 3 2 1 1 2 1 2 5 3 5 4 5 6 5 7 8 9 11 12 14 15 14 13 9 11 13 7 1 6 8 8 8
27 5 22 24 27 28 26 7 4 6 5 5 7 8 6 4 7 5 7 5 6 4 2 2 2 4 2 2 3 5 6 5 6 7 6 8 9 11 12 13 16 16 18 17 12 10 8 5 4 5 3 3 6 7
14 15 29 29 27 22 3 2 5 6 9 11 6 9 7 7 6 6 6 6 7 5 5 4 3 4 6 5 5 6 8 5 6 7 11 12 12 15 13 14 17 17 16 15 11 8 2 2 3 3 3 3 5 8
15 23 32 34 15 8 6 4 4 5 12 4 6 6 6 5 9 7 9 9 7 4 3 3 6 7 9 8 12 9 8 7 9 9 8 12 13 14 13 13 13 14 12 10 8 6 1 2 3 4 4 5 6 7
26 31 37 34 20 6 6 6 6 5 5 8 5 7 7 7 7 8 13 10 9 7 7 8 11 10 11 12 9 11 9 8 6 10 14 15 12 9 10 10 13 12 10 5 1 2 4 4 4 4 5 7 8 10
25 19 35 23 3 6 8 7 7 7 5 7 6 9 5 3 9 12 10 9 10 8 11 16 16 16 13 10 11 12 13 11 14 14 15 12 7 6 6 7 6 4 1 3 2 2 2 1 2 1 2 2 5 8
8 22 6 4 4 8 6 10 6 6 7 3 7 8 5 5 7 8 8 13 8 18 17 19 21 15 18 19 19 18 19 17 15 12 9 7 6 6 5 3 5 7 6 4 5 4 4 4 2 1 1 3 7 6
17 7 6 6 5 10 6 14 9 10 9 8 8 6 5 5 5 7 6 8 11 13 20 23 23 20 23 18 13 13 14 15 15 14 13 13 11 9 9 7 6 6 8 4 2 3 3 4 4 2 3 4 5 6
10 9 8 15 10 10 9 11 9 9 7 9 8 5 5 8 7 5 7 7 13 7 14 21 17 16 8 8 15 17 15 14 15 12 12 12 13 13 14 10 7 5 4 3 5 4 4 3 2 2 2 3 3 4
11 10 11 9 9 10 10 11 11 10 9 10 13 6 6 7 8 7 7 8 10 18 20 18 17 17 18 17 14 14 11 16 16 16 13 14 12 6 5 4 5 5 6 8 6 5 4 3 3 1 1 1 4 5
12 11 17 21 17 14 14 11 17 9 9 13 11 7 8 5 5 7 8 9 16 18 19 20 19 17 17 16 15 14 17 16 12 13 11 13 14 13 12 12 10 8 9 8 8 7 6 5 3 2 2 1 1 3
13 9 11 8 9 8 9 7 12 21 14 10 13 9 8 7 10 10 8 10 13 15 14 14 16 18 18 16 16 12 12 18 16 11 8 11 13 13 10 10 12 7 12 12 11 10 7 5 5 3 2 1 1 2
7 12 22 18 10 10 10 15 14 18 14 10 17 12 13 13 15 8 10 8 16 9 9 8 11 13 13 14 12 14 12 14 12 11 9 4 1 4 8 8 9 11 10 11 10 9 6 4 3 2 2 1 2 1
8 12 14 14 8 9 14 14 16 10 14 16 22 18 10 8 5 8 7 9 8 12 11 9 5 5 5 4 9 15 18 21 19 14 16 16 10 11 11 11 13 13 12 11 9 8 6 6 6 6 4 4 4 5
12 17 11 16 14 19 16 15 18 16 14 13 14 4 3 5 5 4 7 10 12 16 17 14 13 15 14 16 15 14 13 16 19 17 16 17 16 11 18 18 16 15 13 11 12 10 7 5 6 6 9 7 6 5
15 8 7 9 12 10 8 14 6 8 11 13 11 19 21 7 3 6 13 12 12 10 13 13 13 15 16 17 18 19 20 18 20 19 13 9 10 12 17 17 16 15 16 15 12 13 10 8 9 12 9 8 7 6
10 13 13 7 4 3 9 13 17 18 15 17 17 9 5 7 13 9 9 13 13 17 19 18 20 20 23 18 18 18 13 17 22 24 23 18 15 15 17 15 16 15 15 16 15 14 12 13 13 13 11 10 9 8
4 5 5 7 7 12 8 10 11 12 8 14 16 19 19 16 17 12 6 19 22 24 23 25 23 18 22 26 25 23 23 17 16 19 21 21 20 18 16 15 16 17 19 17 18 16 15 14 16 14 13 12 12 10
Wind_Direction
196 211 230 261 316 343 346 334 4 11 9 8 10 10 12 11 8 29 330 304 357 292 287 236 268 295 314 305 318 312 340 357 328 13 359 358 345 356 355 23 13 57 336 21 5 37 22 338 25 59 322 301 326 341
200 203 225 251 286 327 3 329 326 5 6 3 5 5 6 9 2 14 345 337 256 239 268 273 268 256 237 252 276 295 293 300 327 342 351 338 332 342 348 44 22 39 4 29 41 51 326 331 6 352 352 347 343 337
204 215 216 235 244 266 247 333 279 332 356 354 359 2 2 8 4 27 330 339 15 359 304 329 328 312 236 223 217 281 291 299 325 274 310 338 338 332 12 29 32 351 13 57 102 359 336 346 3 8 359 357 346 354
211 219 218 224 226 245 245 261 291 266 336 344 352 356 359 360 1 24 23 359 58 24 2 295 325 320 260 252 237 224 271 312 311 348 7 352 337 355 356 331 35 2 347 352 55 17 357 14 6 359 357 358 354 6
208 219 219 223 225 248 245 257 283 233 317 338 343 348 351 351 346 21 10 18 41 46 289 295 313 295 322 351 349 250 248 302 351 2 8 8 331 351 328 352 40 0 3 5 356 347 351 351 4 2 4 357 7 13
209 214 218 221 217 233 230 235 242 231 305 326 335 340 341 341 338 42 347 325 3 49 42 329 309 292 325 355 34 35 22 31 42 21 349 330 309 2 13 12 358 356 354 352 324 319 37 45 23 1 3 7 14 17
210 211 216 216 214 218 215 219 222 232 294 317 328 334 332 328 330 44 93 320 6 58 20 321 334 313 325 341 9 3 16 35 29 32 10 342 340 20 45 15 337 339 335 344 19 19 36 36 16 16 17 11 24 28
208 211 211 211 209 209 204 208 213 231 283 310 322 328 351 35 62 8 359 7 55 79 54 5 304 332 4 346 356 8 8 25 20 355 351 4 338 32 39 345 340 341 341 345 356 32 99 83 45 35 28 18 28 25
206 211 207 208 206 202 197 199 203 229 281 316 322 35 62 42 44 326 322 44 48 78 81 43 333 324 348 4 334 347 23 44 300 24 20 5 5 36 345 340 346 346 359 354 63 64 57 53 46 41 37 30 27 24
204 203 203 205 207 197 193 190 189 202 332 350 47 50 68 9 292 354 12 6 11 341 76 249 195 298 342 352 349 0 18 35 21 14 330 40 18 310 348 355 356 360 18 29 37 40 56 64 65 48 42 38 24 15
200 198 202 205 204 190 185 181 174 156 58 46 63 62 263 336 47 33 316 22 328 318 212 247 220 294 312 354 335 21 354 355 22 342 30 27 356 345 343 355 359 2 11 38 56 59 71 95 99 75 41 11 1 359
197 197 201 207 199 184 179 174 163 141 157 164 137 133 43 30 50 22 289 297 237 230 224 253 295 220 293 156 355 5 1 341 336 334 40 350 268 300 343 349 352 352 352 5 34 60 39 314 306 326 335 331 344 1
197 199 203 205 192 181 175 173 168 140 128 68 82 66 57 32 223 198 197 212 229 209 229 313 329 308 321 41 72 11 351 349 316 7 295 239 268 318 343 351 353 355 352 331 331 327 308 306 308 305 309 318 336 356
199 201 203 202 189 177 170 170 162 143 97 163 154 214 200 204 232 204 202 166 195 191 267 269 296 331 346 32 91 321 301 341 315 274 253 276 298 311 310 325 342 330 325 323 314 316 314 317 322 326 328 318 332 356
197 202 202 197 183 170 166 165 161 127 138 183 177 232 223 233 251 243 233 281 230 214 199 311 3 347 326 351 282 313 311 248 233 233 238 290 309 310 314 326 326 322 316 299 298 304 303 305 303 324 341 4 86 107
196 197 200 188 178 165 159 149 113 109 202 219 232 237 220 234 250 203 211 249 225 166 112 99 82 10 263 240 221 226 228 227 234 209 229 266 286 293 305 314 318 313 311 306 288 281 290 297 299 132 83 68 66 50
187 208 170 176 168 155 148 126 149 189 213 217 230 218 209 257 244 218 178 197 156 146 210 151 212 228 118 245 238 209 220 235 221 216 237 255 269 285 296 303 306 309 312 309 295 279 285 316 160 139 114 51 49 35
187 169 169 167 154 139 71 158 173 211 229 223 227 223 202 215 204 215 208 176 159 173 161 221 165 200 214 216 223 226 231 251 238 249 266 267 268 286 293 291 298 301 302 305 289 277 271 193 166 120 78 28 14 8
170 165 168 157 137 114 136 185 201 237 223 223 223 223 209 229 219 211 201 186 187 153 166 210 231 219 217 222 236 244 247 242 265 276 258 262 267 276 283 291 295 303 295 305 305 291 358 79 103 92 61 30 9 354
163 167 162 151 146 127 146 180 187 229 222 216 193 204 212 222 220 216 220 198 168 169 201 223 219 222 210 219 217 231 234 242 242 268 278 275 271 263 275 294 297 296 299 306 356 118 124 100 71 62 43 20 1 345
166 171 159 148 135 187 173 164 185 210 201 197 199 183 223 195 219 218 219 172 191 216 231 232 242 239 226 235 228 228 252 243 242 245 265 273 264 245 284 313 322 315 350 34 28 79 109 96 101 95 33 344 357 337
162 139 118 152 147 177 198 191 186 173 174 197 158 191 213 207 209 213 175 195 220 226 231 243 247 241 243 245 246 240 246 248 247 245 239 219 227 233 251 283 329 320 281 219 165 156 154 170 182 248 274 354 355 347
117 117 126 143 167 186 210 155 173 179 170 190 162 197 229 207 210 139 231 220 224 222 220 228 236 232 239 245 237 243 240 236 230 222 220 221 225 226 219 227 256 275 274 244 180 164 143 134 119 79 0 17 353 355
102 148 156 175 185 190 165 185 173 167 173 164 174 209 208 207 149 195 246 245 233 213 216 229 225 235 236 229 237 239 228 209 215 217 217 218 230 239 230 232 215 212 229 227 170 151 152 168 183 117 35 354 353 346
144 175 161 183 181 166 175 174 161 182 177 181 193 200 187 166 195 211 240 253 233 234 234 229 224 219 228 237 239 233 206 193 204 220 224 211 227 225 195 190 178 187 165 167 180 182 186 173 190 210 207 309 344 360
187 179 183 186 172 174 180 168 179 163 156 176 195 182 151 184 220 231 243 242 235 237 239 227 222 222 231 224 231 223 213 196 192 214 231 204 205 208 217 208 206 220 195 179 172 185 193 207 219 206 234 296 345 347
179 171 194 186 173 149 155 149 155 178 181 181 171 151 152 208 222 234 237 224 229 235 224 218 204 212 227 227 220 214 188 177 186 210 214 201 208 208 209 217 217 222 173 174 172 181 192 216 208 208 220 206 298 302
166 170 183 175 165 167 155 161 168 181 189 173 152 175 185 204 221 216 205 212 219 220 209 210 210 215 218 222 208 169 152 147 125 111 101 94 124 192 169 153 140 143 154 157 164 158 151 163 192 216 185 240 167 193
170 165 138 173 149 184 197 184 192 176 158 168 182 192 214 213 206 200 208 202 171 169 180 189 191 153 150 128 167 169 155 155 162 187 213 226 218 220 186 170 151 148 150 150 149 134 162 193 202 203 185 171 149 128
176 166 165 175 191 206 206 181 177 179 183 180 190 196 222 235 228 186 161 168 188 200 207 198 180 180 192 182 177 182 195 184 184 191 211 227 233 218 185 182 175 163 165 160 159 166 181 165 136 129 140 141 147 143
148 151 138 170 208 204 183 174 137 139 167 184 191 212 227 225 232 216 212 215 210 192 180 186 194 198 188 187 188 191 207 216 214 211 198 170 168 183 182 180 173 163 163 171 183 185 188 189 186 169 165 167 167 168
162 176 165 159 176 167 149 171 174 184 178 189 203 196 179 197 223 225 211 183 200 214 212 200 203 211 205 206 203 201 200 202 200 207 202 198 189 183 180 170 166 165 168 171 178 190 191 195 184 179 177 177 178 183
135 138 124 132 144 170 174 159 180 189 190 206 214 210 213 214 230 232 203 201 213 212 207 210 215 210 201 203 210 211 209 203 188 186 191 190 186 175 167 168 170 168 170 175 184 191 190 189 191 187 180 179 182 188